SCP
0 -0 -0 -0 0 0 0 0 0 0 0 0 0 0 0 0 0 0 0 0 0 0 -0 0 0 0 0 0 0 0 0 0 0 0 0 0 0 0 0 0 0 0 0 0 0 0 0 0 0 0 0 0 0 0
0 0 0 -0 -0 0 0 0 0 0 0 0 0 0 0 -0 -0 -0 0 0 0 0 0 0 0 0 0 0 0 0 0 0 0 0 0 0 0 0 0 0 0 0 0 0 0 0 0 0 0 0 0 0 0 0
0 0 0 0 0 0 0 0 0 0 0 0 0 0 0 0 0 0 0 0 0 0 0 -0 -0 -0 0 0 0 0 0 0 0 0 0 0 0 0 0 0 0 0 0 0 0 0 0 0 0 0 0 0 0 0
0 0 0 0 0 0 -0 0 0 0 0 0 0 0 0 0 0 0 0 0 0 0 -0 0 0 0 0 0 0 0 0 0 0 -0 0 0 0 -0 0 0 0 0 0 0 0 0 0 0 0 0 0 0 0 0
0 0 0 0 0 0 0 0 0 0 0 0 0 0 0 0 0 0 0 0 0 0 0 0 0 0 0 0 0 0 0 0 0 0 0 -0 -0 -0 0 0 0 0 0 0 0 0 0 0 0 0 0 0 0 0
0 0 0 0 0 0 0 0 -0 0 0 0 0 0 0 0 0 0 0 0 0 0 0 0 -0 0 0 0 0 0 0 0 0 0 0 0 0 0 0 0 0 0 0 0 0 0 0 0 0 0 0 0 0 0
0 0 0 0 0 0 0 0 0 0 0 0 0 0 0 0 0 0 0 0 0 0 0 0 -0 -0 -0 -0 0 0 0 0 0 0 0 0 0 0 0 0 0 0 0 0 0 0 0 0 0 0 0 0 0 0
0 0 0 0 0 0 0 0 0 0 0 0 0 0 0 0 0 0 0 0 0 0 0 0 0 0 0 0 0 0 0 0 0 0 0 0 0 0 0 0 0 0 0 0 0 0 0 0 0 0 0 0 0 0
0 0 0 0 0 0 0 0 0 0 0 0 0 0 0 0 0 0 0 0 0 0 0 0 0 0 0 0 0 0 0 0 0 0 0 0 0 0 0 0 0 0 0 0 0 0 0 0 0 0 0 0 0 0
0 0 0 0 0 0 0 0 0 0 0 0 0 0 0 0 0 0 0 0 0 0 0 0 0 0 0 0 0 0 -0 -0 0 0 0 0 0 0 0 0 0 0 0 0 0 0 0 0 0 0 0 0 0 0
0 0 0 0 0 0 0 0 0 0 0 0 0 0 0 0 0 0 0 0 0 0 0 0 0 0 0 0 0 -0 0 0 0 0 0 0 0 0 0 0 0 0 0 0 0 0 0 0 0 0 0 0 0 0
0 0 0 0 0 0 0 0 0 0 0 0 0 0 0 0 0 0 0 0 0 0 0 0 0 0 0 0 -0 -0 0 0 0 0 0 0 0 0 0 0 -0 0 0 0 0 -0 -0 0 0 0 0 0 0 0
0 0 0 0 0 0 0 0 0 0 0 0 0 0 0 0 0 0 0 0 0 0 0 0 0 0 0 0 0 -0 -0 0 0 0 0 0 0 0 0 -0 -0 -0 -0 -0 -0 -0 0 0 0 -0 0 0 0 0
0 0 0 0 0 0 0 0 0 0 0 0 -0 -0 -0 0 0 0 0 0 0 0 0 0 0 0 0 0 0 0 0 0 0 0 0 0 -0 -0 -0 -0 -0 -0 -0 -0 -0 -0 0 0 0 0 -0 0 0 0
0 0 0 0 0 0 0 0 0 0 0 0 0 0 0 0 0 0 0 0 0 0 0 0 0 0 0 0 0 0 0 0 0 0 0 0 -0 -0 -0 -0 -0 -0 -0 -0 -0 0 0 0 0 0 0 0 0 0
0 0 0 0 0 0 0 0 0 0 0 0 0 0 0 0 0 0 0 0 0 0 0 0 0 0 0 0 0 0 0 0 0 0 -0 -0 -0 -0 -0 -0 -0 -0 -0 0 0 0 0 0 0 0 0 0 0 0
0 0 0 0 0 0 0 0 0 0 0 0 0 0 0 0 0 0 0 0 0 0 0 0 0 0 0 0 0 0 0 0 -0 -0 -0 -0 -0 -0 -0 -0 -0 0 0 0 -0 0 0 0 0 0 0 0 0 0
0 0 0 0 0 0 0 0 0 0 0 0 0 0 0 0 0 0 0 0 0 0 0 0 0 0 0 0 0 0 -0 -0 -0 -0 -0 -0 -0 -0 -0 0 0 0 -0 -0 -0 -0 0 0 0 0 0 -0 -0 -0
0 -0 0 0 0 0 0 0 0 0 0 0 0 0 0 0 0 0 0 0 0 0 0 0 0 0 0 0 0 -0 -0 -0 -0 -0 -0 -0 -0 -0 -0 -0 -0 -0 -0 -0 -0 -0 -0 -0 0 0 0 0 0 0
0 0 0 0 0 0 0 0 0 0 0 0 0 0 0 0 0 0 0 0 0 0 0 0 0 0 0 -0 -0 -0 -0 -0 -0 -0 0 0 0 -0 -0 -0 0 -0 -0 0 0 -0 0 0 -0 -0 -0 -0 -0 -0
0 0 0 0 0 0 0 0 0 0 0 0 0 0 0 0 0 0 0 0 0 0 0 0 0 -0 -0 -0 -0 -0 -0 -0 -0 -0 0 0 -0 -0 -0 -0 -0 0 0 0 0 0 -0 -0 -0 -0 -0 -0 0 0
0 0 0 0 0 0 0 0 0 0 0 0 0 0 0 0 0 0 0 0 0 -0 0 0 -0 -0 -0 -0 0 -0 0 0 0 0 -0 0 0 -0 -0 -0 -0 0 0 0 0 -0 -0 -0 -0 -0 -0 -0 -0 -0
0 0 0 0 0 0 0 0 0 0 0 0 0 0 0 0 0 -0 0 0 -0 0 -0 -0 0 0 0 0 0 0 -0 -0 -0 0 0 0 0 0 0 -0 -0 -0 -0 -0 -0 -0 -0 -0 -0 -0 -0 -0 -0 -0
0 0 0 0 0 0 0 0 0 0 0 0 0 0 0 0 -0 0 0 0 -0 0 0 -0 0 0 0 0 0 -0 -0 -0 0 0 0 0 0 0 -0 -0 -0 -0 -0 0 0 0 -0 -0 -0 -0 0 0 0 0
-0 0 0 -0 -0 -0 0 0 0 0 0 0 0 0 0 0 -0 0 0 -0 0 0 0 0 0 0 0 0 0 -0 -0 0 0 0 0 0 0 0 -0 0 0 -0 -0 -0 -0 -0 -0 0 0 0 0 0 0 0
-0 0 0 0 0 0 0 0 0 0 0 0 -0 -0 -0 0 -0 0 -0 -0 0 0 0 0 0 0 0 0 0 0 0 0 0 0 0 0 0 0 0 -0 -0 -0 -0 0 0 0 0 0 0 0 0 0 0 0
-0 0 0 0 0 0 0 0 0 -0 -0 -0 0 0 -0 -0 0 -0 0 0 0 0 0 0 0 0 0 0 0 0 0 0 0 0 0 0 0 0 0 0 0 0 0 0 0 0 0 0 0 0 0 0 0 0
0 -0 -0 -0 0 -0 -0 0 0 0 -0 0 0 0 0 -0 -0 0 0 0 0 0 0 0 0 0 0 0 0 0 0 0 0 -0 -0 0 0 0 0 0 0 0 0 0 0 0 0 0 0 0 0 0 0 0
0 -0 0 -0 0 -0 -0 0 0 -0 0 0 0 -0 -0 0 0 0 0 0 0 0 0 0 0 0 0 0 0 0 0 0 0 0 0 0 0 0 0 0 0 0 0 0 0 0 0 0 0 0 0 0 0 0
0 0 -0 -0 -0 -0 0 -0 -0 -0 0 -0 0 -0 -0 -0 -0 0 0 -0 -0 -0 -0 -0 -0 0 0 0 -0 -0 -0 -0 -0 -0 -0 0 0 0 0 0 0 0 0 0 0 0 0 0 0 0 0 0 0 0
-0 -0 -0 -0 -0 -0 0 0 -0 -0 -0 -0 -0 0 0 0 -0 -0 -0 -0 -0 0 0 0 0 0 0 0 0 0 0 -0 -0 -0 0 0 0 0 0 0 0 0 0 0 0 0 0 0 0 0 0 0 0 0
-0 0 -0 -0 0 0 0 0 0 0 0 0 -0 0 -0 -0 -0 0 -0 0 0 -0 -0 0 0 0 0 0 0 0 0 0 0 0 0 0 0 0 0 0 0 0 0 0 0 0 0 0 0 0 0 0 0 0
0 0 0 0 0 -0 0 0 0 0 0 0 -0 -0 -0 -0 -0 0 0 0 0 0 0 0 0 0 0 0 0 0 0 0 0 0 0 0 0 0 0 0 0 0 0 0 0 0 0 0 0 0 0 0 0 0
Wind_Speed_500mb
58 57 60 62 63 67 61 62 60 58 52 52 50 48 40 34 35 32 39 36 29 17 34 53 54 26 29 12 9 6 10 15 15 27 20 23 19 27 24 36 43 37 21 18 26 26 39 37 18 38 62 83 66 68
63 63 60 62 64 65 66 64 60 60 57 55 53 50 46 46 40 35 44 28 29 34 36 48 67 56 52 44 33 12 17 8 12 13 16 14 16 10 34 35 35 36 40 42 31 19 16 39 48 103 105 78 79 54
62 63 65 62 62 63 65 65 64 61 59 60 54 51 50 55 45 44 45 36 34 36 50 49 49 73 71 88 88 34 40 24 18 29 5 6 11 4 16 31 41 30 43 37 47 48 25 33 71 84 92 96 117 74
62 64 63 66 67 62 63 65 66 64 62 60 57 57 54 54 54 45 39 33 38 24 9 17 33 27 26 43 56 55 74 85 87 85 30 20 25 10 9 3 11 8 2 29 43 46 51 69 76 87 90 85 80 80
59 62 64 65 66 69 63 62 64 65 63 61 59 55 56 52 53 46 41 41 46 40 10 33 61 83 61 49 66 67 75 64 53 29 20 29 16 18 17 28 34 41 46 38 49 49 43 58 81 91 89 87 97 97
60 61 63 66 64 66 68 64 59 61 58 58 59 58 55 53 46 46 24 48 58 60 21 4 11 48 69 64 64 66 61 63 57 39 18 34 69 30 26 36 35 56 62 59 36 70 92 108 111 103 88 97 101 97
57 59 61 64 61 62 61 63 58 56 54 53 55 56 52 49 46 41 16 8 16 23 10 7 8 10 20 37 34 49 55 44 40 34 15 32 33 53 35 45 53 81 83 80 69 69 69 96 86 99 93 107 103 93
54 56 58 60 56 53 53 55 51 49 50 47 47 48 49 46 47 51 59 50 47 49 17 4 8 13 48 30 15 40 34 33 28 25 17 18 32 24 32 49 69 96 96 97 103 103 114 111 115 119 110 99 91 93
48 49 51 50 46 49 50 49 48 45 42 39 40 38 39 44 30 57 50 41 38 37 5 6 7 10 8 13 10 31 24 18 27 17 27 27 29 22 34 47 52 80 76 84 95 100 108 99 90 95 91 84 77 75
45 43 44 40 37 36 39 42 44 43 41 38 34 24 13 18 29 27 11 13 18 17 16 7 17 13 22 30 7 4 10 8 6 13 24 17 31 50 85 73 43 41 46 57 47 44 69 79 83 85 85 86 87 92
46 38 38 34 33 30 29 29 35 36 34 37 19 16 21 16 16 11 5 4 3 4 15 20 31 16 21 9 8 11 6 5 4 10 10 6 13 30 52 50 54 60 63 75 61 71 83 76 75 86 93 100 100 91
44 38 34 32 30 27 25 26 29 31 35 24 22 24 20 21 9 8 6 4 6 12 10 8 14 23 10 12 7 9 6 5 11 1 5 7 5 39 54 62 65 68 85 95 84 87 88 99 103 94 78 84 93 90
37 31 26 21 22 25 25 27 28 27 30 32 16 16 14 8 6 12 12 9 5 6 13 12 4 7 11 19 4 7 9 10 4 4 10 5 17 51 64 70 73 66 74 93 100 92 93 95 95 72 74 79 74 64
27 25 24 23 21 25 26 29 30 25 18 5 6 6 7 6 8 10 12 10 12 5 6 5 4 7 12 0 8 7 11 1 10 8 12 6 37 70 75 76 82 95 88 82 87 100 96 87 77 74 67 63 45 52
20 18 22 20 30 24 13 14 20 11 14 13 8 8 10 9 11 5 14 5 8 14 18 11 11 5 6 7 8 6 8 12 4 6 6 26 67 70 79 80 82 86 94 93 99 94 92 76 53 41 27 33 42 54
23 27 17 18 10 11 19 21 20 13 7 8 11 2 1 6 7 6 10 6 18 22 16 5 7 5 11 8 5 10 6 7 3 6 37 63 67 73 79 84 81 80 76 78 78 63 54 25 5 16 22 27 41 55
23 13 20 26 27 28 19 19 14 13 13 9 7 4 9 16 6 8 6 8 20 10 0 4 9 12 9 6 3 4 5 9 17 48 56 59 67 78 87 78 79 78 74 75 57 39 21 5 12 26 41 42 44 53
23 26 28 26 19 16 14 14 12 10 9 9 4 7 17 17 13 11 13 15 9 6 6 2 8 5 6 7 7 4 11 40 47 55 62 70 76 75 72 74 73 66 60 57 38 21 10 17 30 43 49 54 65 70
26 27 17 10 14 6 6 11 13 5 4 13 24 22 21 27 36 21 16 12 16 12 7 7 9 5 5 4 9 35 44 45 54 67 69 66 60 68 68 62 60 52 43 37 36 37 35 36 42 46 49 56 67 63
24 21 20 19 12 12 9 2 3 2 4 9 16 15 15 15 11 31 34 24 18 10 12 7 1 5 14 40 46 50 54 55 55 59 59 59 60 59 53 51 50 39 32 29 31 33 39 41 41 41 48 58 62 59
16 16 5 9 16 6 6 9 9 8 8 15 22 9 13 15 12 15 15 19 17 9 4 7 24 40 44 46 42 44 46 46 47 45 51 56 59 41 42 40 39 39 41 42 45 43 45 47 45 47 52 57 56 54
10 7 10 12 6 7 10 16 6 8 8 15 10 10 8 4 5 13 9 22 9 4 14 32 41 44 43 40 37 30 32 29 23 25 25 34 46 47 45 43 45 47 48 46 45 47 50 50 52 57 62 64 60 58
13 9 10 13 8 14 7 14 10 17 6 5 7 6 5 4 6 8 6 8 7 22 31 32 32 24 24 27 25 24 20 21 24 28 30 35 42 46 46 46 47 49 49 50 50 54 57 57 59 63 63 62 62 62
12 13 17 15 24 7 11 13 13 11 10 8 6 6 6 4 5 6 6 4 18 31 36 36 35 34 28 35 42 40 36 32 29 30 34 39 43 49 59 58 52 50 50 48 54 56 56 56 54 55 55 56 56 56
10 22 17 14 20 12 13 10 11 8 7 8 6 6 4 9 4 5 3 7 27 35 38 34 33 36 34 36 40 41 44 53 57 58 52 48 48 53 60 66 65 61 55 56 57 55 54 51 50 50 49 47 48 47
16 16 10 4 9 8 5 7 8 8 7 6 6 9 7 4 6 5 2 14 16 27 31 31 29 29 34 37 40 45 45 48 54 62 60 60 61 63 65 68 69 68 63 58 53 52 51 48 46 44 46 43 38 34
12 8 12 15 6 5 8 10 9 6 8 9 7 8 4 6 4 2 1 11 13 17 20 21 27 30 29 25 22 24 31 40 49 49 49 50 53 56 58 58 60 55 50 50 49 49 46 43 42 39 36 34 34 32
9 16 7 17 12 12 7 5 6 4 3 9 6 6 3 2 3 4 3 5 9 12 14 18 24 27 30 31 29 26 25 25 26 27 32 37 38 40 41 41 39 37 38 39 40 38 36 34 31 28 25 25 24 22
11 19 4 9 7 10 5 4 2 3 9 2 3 1 2 3 2 6 9 11 12 10 10 12 15 18 19 21 23 24 22 21 20 24 29 30 30 31 30 28 26 25 25 24 23 24 22 21 20 19 17 16 15 13
12 18 6 4 7 5 6 9 9 9 5 0 3 0 1 2 6 12 13 11 8 7 6 8 12 14 17 19 21 20 24 26 26 27 27 30 30 27 26 24 21 19 17 15 15 15 14 13 12 10 9 8 7 7
19 10 6 8 3 4 13 13 6 6 4 2 4 1 1 2 7 12 13 12 11 6 2 5 12 17 19 20 20 20 17 24 25 25 24 24 25 25 24 23 22 22 21 19 18 17 16 15 15 14 14 15 14 15
15 12 4 4 4 7 8 10 6 2 2 4 3 3 4 5 7 10 15 22 19 15 10 9 14 17 17 18 21 21 22 23 25 26 28 28 28 28 28 25 23 23 23 23 22 20 19 18 18 17 17 16 16 17
4 6 6 4 7 6 14 16 16 9 3 4 3 6 4 4 8 6 8 17 20 18 16 12 9 13 18 20 23 21 24 26 28 30 33 36 38 36 33 31 28 27 26 25 25 26 25 25 24 23 23 23 22 21
Wind_Direction_500mb
285 287 287 283 281 282 283 275 273 273 275 279 282 272 269 280 278 288 274 271 282 269 271 275 275 279 297 296 245 321 195 205 184 217 227 229 231 220 226 227 224 221 194 204 228 239 248 217 165 203 230 246 257 264
287 283 282 284 281 277 278 279 276 271 270 271 275 279 287 265 266 265 271 290 286 266 263 274 282 269 269 269 294 264 306 336 238 232 217 221 230 194 220 234 218 232 216 225 207 216 217 196 216 221 236 242 259 260
287 283 278 278 282 280 275 272 275 273 270 268 269 273 276 282 280 268 268 269 275 278 290 264 257 277 269 268 271 246 273 272 240 255 283 297 263 331 229 227 231 220 236 244 253 253 242 226 224 233 230 234 248 258
292 286 280 276 273 277 278 270 269 270 272 272 266 266 273 272 282 269 262 274 272 272 256 283 289 269 260 256 253 254 255 270 266 274 274 267 267 232 247 280 285 243 76 249 258 262 263 259 247 244 246 245 251 258
294 293 287 278 275 269 272 276 269 266 268 269 267 267 272 273 275 271 264 260 259 245 256 284 287 289 293 280 259 262 265 268 279 269 259 261 262 272 258 268 258 259 255 255 257 251 242 254 257 259 256 258 259 260
290 291 290 283 274 271 268 269 272 264 263 263 266 267 265 265 268 270 265 266 252 251 252 288 280 277 291 287 278 279 271 261 250 251 260 260 271 259 271 269 277 277 263 256 268 273 274 274 267 268 269 270 264 253
291 292 290 287 275 270 268 263 268 265 263 263 266 269 266 261 259 250 233 313 213 226 259 288 298 259 280 302 286 293 292 255 239 251 241 250 252 258 269 270 273 272 277 274 281 293 281 273 269 269 272 270 266 268
288 290 291 287 279 275 267 263 263 266 263 266 266 264 263 263 263 259 259 265 259 251 233 253 263 300 282 279 279 280 268 263 243 250 259 251 263 254 259 260 269 271 274 274 274 275 273 274 274 270 268 269 268 262
286 288 292 289 284 278 270 258 255 258 261 266 268 271 270 262 261 264 276 271 250 239 235 157 169 269 246 243 259 297 278 272 256 238 250 255 260 246 262 260 261 264 269 275 276 268 267 265 265 266 265 262 251 249
291 285 291 293 293 294 276 255 251 258 261 263 267 263 230 231 245 251 231 207 205 213 230 205 225 245 269 290 289 351 263 223 250 242 253 219 246 252 258 274 314 349 327 328 339 302 300 297 287 278 266 265 260 259
292 284 286 288 295 289 281 270 262 262 262 259 219 224 238 220 187 190 166 162 230 254 218 230 230 244 257 246 265 239 247 256 278 263 163 267 247 260 360 352 341 331 329 318 311 301 300 294 296 280 271 271 263 250
281 278 279 279 286 295 302 277 265 259 253 244 244 231 205 193 180 139 180 335 174 219 222 180 222 197 220 212 217 270 281 268 253 289 93 264 38 352 347 338 334 330 330 323 321 313 305 299 291 287 284 275 263 254
278 273 274 274 285 298 297 292 291 271 261 251 220 184 173 188 151 169 197 260 287 226 215 192 257 229 221 232 233 210 245 263 352 247 228 217 346 341 336 331 328 326 324 324 322 317 308 302 297 288 273 274 271 257
277 265 268 269 287 295 288 283 275 267 266 259 186 226 197 172 203 189 198 207 227 304 351 214 237 186 232 21 215 215 245 104 233 231 238 345 340 332 331 329 329 327 326 320 315 318 315 310 299 295 282 269 240 209
301 287 272 280 288 281 279 313 316 299 223 210 210 230 203 220 225 235 234 271 325 330 0 343 296 191 250 238 207 256 248 237 256 266 304 323 323 323 324 325 325 324 323 321 323 323 324 310 281 258 238 215 198 175
266 272 276 283 241 249 272 292 293 296 254 236 218 163 2 53 301 87 22 59 1 341 327 206 247 355 244 213 213 240 307 254 307 287 312 315 316 318 318 319 319 317 316 316 322 325 321 315 238 167 149 150 156 164
271 261 247 262 277 288 285 271 261 214 221 209 242 156 125 69 75 94 37 5 349 351 351 319 240 231 308 256 218 17 322 333 312 307 307 308 311 313 316 317 320 323 326 331 332 331 337 5 133 134 124 130 145 149
272 279 283 295 305 299 274 220 216 232 235 201 148 90 84 77 88 55 19 7 30 36 9 313 327 311 293 288 333 335 305 308 306 305 309 311 315 322 321 320 327 332 335 345 352 7 59 103 113 109 119 127 131 132
277 294 298 265 242 257 247 211 211 219 152 94 96 87 90 87 60 59 47 79 80 72 85 33 52 357 303 300 308 313 312 312 312 312 311 315 324 324 326 333 341 344 347 357 24 47 68 89 102 116 124 127 116 115
289 283 261 265 209 202 230 217 305 60 81 101 100 81 77 76 81 48 54 66 73 56 43 44 52 265 278 294 299 296 298 305 309 311 315 325 329 335 342 354 355 359 13 31 50 71 80 88 94 103 110 112 117 119
281 257 242 166 179 201 78 20 44 50 69 90 120 81 99 78 50 32 38 31 61 44 356 302 303 307 310 312 319 316 308 311 309 307 307 319 335 352 6 17 23 36 44 52 60 65 74 80 90 100 107 107 111 116
210 180 149 160 107 84 78 31 28 11 58 109 85 74 64 54 19 26 42 47 59 335 320 314 317 322 325 332 330 326 324 327 336 345 356 2 2 17 26 29 37 40 51 54 62 68 76 85 93 99 102 105 109 112
133 120 70 40 86 46 1 21 51 18 51 48 63 58 39 51 54 41 73 65 27 349 348 348 350 355 353 0 7 12 8 16 22 25 30 32 31 45 47 48 54 53 57 62 71 76 81 87 92 95 99 103 107 111
99 59 35 40 26 24 356 26 27 20 39 26 46 56 39 32 50 60 74 27 347 4 14 19 22 20 36 37 29 33 40 47 53 53 49 52 47 44 49 54 56 63 69 73 77 82 86 89 94 96 100 104 106 109
86 12 26 6 17 28 30 16 359 16 51 12 50 44 18 358 68 60 55 346 356 4 13 23 34 41 31 45 50 53 57 60 59 60 59 62 70 71 65 61 57 58 63 69 70 74 80 84 86 89 92 94 99 103
69 14 49 352 357 59 357 46 27 6 356 44 31 327 330 67 69 69 25 340 350 4 8 13 14 32 45 46 48 52 55 65 67 64 58 58 58 58 58 55 54 53 55 58 62 67 71 73 78 81 83 81 81 88
55 339 31 29 26 64 49 38 30 41 39 21 354 337 358 70 86 126 358 5 14 24 34 40 51 52 49 49 53 53 55 59 62 64 59 54 54 54 53 51 50 49 53 56 58 59 62 65 69 71 77 85 89 88
71 33 48 344 43 38 107 53 51 28 316 334 300 18 54 125 138 188 158 59 78 78 71 65 62 60 58 55 52 51 54 54 57 62 60 54 54 54 56 56 56 55 54 56 58 58 58 61 63 65 68 70 74 78
42 355 15 17 28 49 64 112 222 357 332 262 153 226 237 239 210 149 134 125 118 108 90 67 52 42 37 35 34 35 35 36 35 41 42 37 36 35 35 34 33 31 31 34 34 38 39 40 44 47 51 56 59 65
1 4 77 57 67 41 20 19 341 344 11 77 195 234 9 150 151 147 143 140 138 129 86 51 34 20 11 7 4 3 11 15 19 22 22 18 12 9 9 8 7 4 1 357 352 347 343 337 332 325 319 313 309 301
347 354 67 52 105 44 338 333 307 322 333 13 36 314 259 222 214 204 194 191 195 213 260 359 350 341 339 339 346 356 2 4 8 9 7 1 356 354 354 353 350 349 349 347 343 336 328 323 317 313 309 304 299 294
15 34 93 55 311 344 350 360 337 297 298 217 253 288 275 264 256 224 225 217 222 230 248 285 321 334 341 345 345 345 350 351 350 349 348 346 345 343 343 342 338 334 332 330 327 325 324 319 314 310 306 303 303 303
3 17 36 11 11 10 357 350 19 358 329 328 320 330 323 279 249 269 266 233 233 242 251 273 284 326 336 339 342 335 334 337 338 338 335 332 329 329 329 326 323 321 320 317 312 309 307 306 305 304 302 302 302 302
Wind_Speed_850mb
58 57 60 62 63 67 61 62 60 58 52 52 50 48 40 34 35 32 39 36 29 17 34 53 54 26 29 12 9 6 10 15 15 27 20 23 19 27 24 36 43 37 21 18 26 26 39 37 18 38 62 83 66 68
63 63 60 62 64 65 66 64 60 60 57 55 53 50 46 46 40 35 44 28 29 34 36 48 67 56 52 44 33 12 17 8 12 13 16 14 16 10 34 35 35 36 40 42 31 19 16 39 48 103 105 78 79 54
62 63 65 62 62 63 65 65 64 61 59 60 54 51 50 55 45 44 45 36 34 36 50 49 49 73 71 88 88 34 40 24 18 29 5 6 11 4 16 31 41 30 43 37 47 48 25 33 71 84 92 96 117 74
62 64 63 66 67 62 63 65 66 64 62 60 57 57 54 54 54 45 39 33 38 24 9 17 33 27 26 43 56 55 74 85 87 85 30 20 25 10 9 3 11 8 2 29 43 46 51 69 76 87 90 85 80 80
59 62 64 65 66 69 63 62 64 65 63 61 59 55 56 52 53 46 41 41 46 40 10 33 61 83 61 49 66 67 75 64 53 29 20 29 16 18 17 28 34 41 46 38 49 49 43 58 81 91 89 87 97 97
60 61 63 66 64 66 68 64 59 61 58 58 59 58 55 53 46 46 24 48 58 60 21 4 11 48 69 64 64 66 61 63 57 39 18 34 69 30 26 36 35 56 62 59 36 70 92 108 111 103 88 97 101 97
57 59 61 64 61 62 61 63 58 56 54 53 55 56 52 49 46 41 16 8 16 23 10 7 8 10 20 37 34 49 55 44 40 34 15 32 33 53 35 45 53 81 83 80 69 69 69 96 86 99 93 107 103 93
54 56 58 60 56 53 53 55 51 49 50 47 47 48 49 46 47 51 59 50 47 49 17 4 8 13 48 30 15 40 34 33 28 25 17 18 32 24 32 49 69 96 96 97 103 103 114 111 115 119 110 99 91 93
48 49 51 50 46 49 50 49 48 45 42 39 40 38 39 44 30 57 50 41 38 37 5 6 7 10 8 13 10 31 24 18 27 17 27 27 29 22 34 47 52 80 76 84 95 100 108 99 90 95 91 84 77 75
45 43 44 40 37 36 39 42 44 43 41 38 34 24 13 18 29 27 11 13 18 17 16 7 17 13 22 30 7 4 10 8 6 13 24 17 31 50 85 73 43 41 46 57 47 44 69 79 83 85 85 86 87 92
46 38 38 34 33 30 29 29 35 36 34 37 19 16 21 16 16 11 5 4 3 4 15 20 31 16 21 9 8 11 6 5 4 10 10 6 13 30 52 50 54 60 63 75 61 71 83 76 75 86 93 100 100 91
44 38 34 32 30 27 25 26 29 31 35 24 22 24 20 21 9 8 6 4 6 12 10 8 14 23 10 12 7 9 6 5 11 1 5 7 5 39 54 62 65 68 85 95 84 87 88 99 103 94 78 84 93 90
37 31 26 21 22 25 25 27 28 27 30 32 16 16 14 8 6 12 12 9 5 6 13 12 4 7 11 19 4 7 9 10 4 4 10 5 17 51 64 70 73 66 74 93 100 92 93 95 95 72 74 79 74 64
27 25 24 23 21 25 26 29 30 25 18 5 6 6 7 6 8 10 12 10 12 5 6 5 4 7 12 0 8 7 11 1 10 8 12 6 37 70 75 76 82 95 88 82 87 100 96 87 77 74 67 63 45 52
20 18 22 20 30 24 13 14 20 11 14 13 8 8 10 9 11 5 14 5 8 14 18 11 11 5 6 7 8 6 8 12 4 6 6 26 67 70 79 80 82 86 94 93 99 94 92 76 53 41 27 33 42 54
23 27 17 18 10 11 19 21 20 13 7 8 11 2 1 6 7 6 10 6 18 22 16 5 7 5 11 8 5 10 6 7 3 6 37 63 67 73 79 84 81 80 76 78 78 63 54 25 5 16 22 27 41 55
23 13 20 26 27 28 19 19 14 13 13 9 7 4 9 16 6 8 6 8 20 10 0 4 9 12 9 6 3 4 5 9 17 48 56 59 67 78 87 78 79 78 74 75 57 39 21 5 12 26 41 42 44 53
23 26 28 26 19 16 14 14 12 10 9 9 4 7 17 17 13 11 13 15 9 6 6 2 8 5 6 7 7 4 11 40 47 55 62 70 76 75 72 74 73 66 60 57 38 21 10 17 30 43 49 54 65 70
26 27 17 10 14 6 6 11 13 5 4 13 24 22 21 27 36 21 16 12 16 12 7 7 9 5 5 4 9 35 44 45 54 67 69 66 60 68 68 62 60 52 43 37 36 37 35 36 42 46 49 56 67 63
24 21 20 19 12 12 9 2 3 2 4 9 16 15 15 15 11 31 34 24 18 10 12 7 1 5 14 40 46 50 54 55 55 59 59 59 60 59 53 51 50 39 32 29 31 33 39 41 41 41 48 58 62 59
16 16 5 9 16 6 6 9 9 8 8 15 22 9 13 15 12 15 15 19 17 9 4 7 24 40 44 46 42 44 46 46 47 45 51 56 59 41 42 40 39 39 41 42 45 43 45 47 45 47 52 57 56 54
10 7 10 12 6 7 10 16 6 8 8 15 10 10 8 4 5 13 9 22 9 4 14 32 41 44 43 40 37 30 32 29 23 25 25 34 46 47 45 43 45 47 48 46 45 47 50 50 52 57 62 64 60 58
13 9 10 13 8 14 7 14 10 17 6 5 7 6 5 4 6 8 6 8 7 22 31 32 32 24 24 27 25 24 20 21 24 28 30 35 42 46 46 46 47 49 49 50 50 54 57 57 59 63 63 62 62 62
12 13 17 15 24 7 11 13 13 11 10 8 6 6 6 4 5 6 6 4 18 31 36 36 35 34 28 35 42 40 36 32 29 30 34 39 43 49 59 58 52 50 50 48 54 56 56 56 54 55 55 56 56 56
10 22 17 14 20 12 13 10 11 8 7 8 6 6 4 9 4 5 3 7 27 35 38 34 33 36 34 36 40 41 44 53 57 58 52 48 48 53 60 66 65 61 55 56 57 55 54 51 50 50 49 47 48 47
16 16 10 4 9 8 5 7 8 8 7 6 6 9 7 4 6 5 2 14 16 27 31 31 29 29 34 37 40 45 45 48 54 62 60 60 61 63 65 68 69 68 63 58 53 52 51 48 46 44 46 43 38 34
12 8 12 15 6 5 8 10 9 6 8 9 7 8 4 6 4 2 1 11 13 17 20 21 27 30 29 25 22 24 31 40 49 49 49 50 53 56 58 58 60 55 50 50 49 49 46 43 42 39 36 34 34 32
9 16 7 17 12 12 7 5 6 4 3 9 6 6 3 2 3 4 3 5 9 12 14 18 24 27 30 31 29 26 25 25 26 27 32 37 38 40 41 41 39 37 38 39 40 38 36 34 31 28 25 25 24 22
11 19 4 9 7 10 5 4 2 3 9 2 3 1 2 3 2 6 9 11 12 10 10 12 15 18 19 21 23 24 22 21 20 24 29 30 30 31 30 28 26 25 25 24 23 24 22 21 20 19 17 16 15 13
12 18 6 4 7 5 6 9 9 9 5 0 3 0 1 2 6 12 13 11 8 7 6 8 12 14 17 19 21 20 24 26 26 27 27 30 30 27 26 24 21 19 17 15 15 15 14 13 12 10 9 8 7 7
19 10 6 8 3 4 13 13 6 6 4 2 4 1 1 2 7 12 13 12 11 6 2 5 12 17 19 20 20 20 17 24 25 25 24 24 25 25 24 23 22 22 21 19 18 17 16 15 15 14 14 15 14 15
15 12 4 4 4 7 8 10 6 2 2 4 3 3 4 5 7 10 15 22 19 15 10 9 14 17 17 18 21 21 22 23 25 26 28 28 28 28 28 25 23 23 23 23 22 20 19 18 18 17 17 16 16 17
4 6 6 4 7 6 14 16 16 9 3 4 3 6 4 4 8 6 8 17 20 18 16 12 9 13 18 20 23 21 24 26 28 30 33 36 38 36 33 31 28 27 26 25 25 26 25 25 24 23 23 23 22 21
Wind_Direction_850mb
285 287 287 283 281 282 283 275 273 273 275 279 282 272 269 280 278 288 274 271 282 269 271 275 275 279 297 296 245 321 195 205 184 217 227 229 231 220 226 227 224 221 194 204 228 239 248 217 165 203 230 246 257 264
287 283 282 284 281 277 278 279 276 271 270 271 275 279 287 265 266 265 271 290 286 266 263 274 282 269 269 269 294 264 306 336 238 232 217 221 230 194 220 234 218 232 216 225 207 216 217 196 216 221 236 242 259 260
287 283 278 278 282 280 275 272 275 273 270 268 269 273 276 282 280 268 268 269 275 278 290 264 257 277 269 268 271 246 273 272 240 255 283 297 263 331 229 227 231 220 236 244 253 253 242 226 224 233 230 234 248 258
292 286 280 276 273 277 278 270 269 270 272 272 266 266 273 272 282 269 262 274 272 272 256 283 289 269 260 256 253 254 255 270 266 274 274 267 267 232 247 280 285 243 76 249 258 262 263 259 247 244 246 245 251 258
294 293 287 278 275 269 272 276 269 266 268 269 267 267 272 273 275 271 264 260 259 245 256 284 287 289 293 280 259 262 265 268 279 269 259 261 262 272 258 268 258 259 255 255 257 251 242 254 257 259 256 258 259 260
290 291 290 283 274 271 268 269 272 264 263 263 266 267 265 265 268 270 265 266 252 251 252 288 280 277 291 287 278 279 271 261 250 251 260 260 271 259 271 269 277 277 263 256 268 273 274 274 267 268 269 270 264 253
291 292 290 287 275 270 268 263 268 265 263 263 266 269 266 261 259 250 233 313 213 226 259 288 298 259 280 302 286 293 292 255 239 251 241 250 252 258 269 270 273 272 277 274 281 293 281 273 269 269 272 270 266 268
288 290 291 287 279 275 267 263 263 266 263 266 266 264 263 263 263 259 259 265 259 251 233 253 263 300 282 279 279 280 268 263 243 250 259 251 263 254 259 260 269 271 274 274 274 275 273 274 274 270 268 269 268 262
286 288 292 289 284 278 270 258 255 258 261 266 268 271 270 262 261 264 276 271 250 239 235 157 169 269 246 243 259 297 278 272 256 238 250 255 260 246 262 260 261 264 269 275 276 268 267 265 265 266 265 262 251 249
291 285 291 293 293 294 276 255 251 258 261 263 267 263 230 231 245 251 231 207 205 213 230 205 225 245 269 290 289 351 263 223 250 242 253 219 246 252 258 274 314 349 327 328 339 302 300 297 287 278 266 265 260 259
292 284 286 288 295 289 281 270 262 262 262 259 219 224 238 220 187 190 166 162 230 254 218 230 230 244 257 246 265 239 247 256 278 263 163 267 247 260 360 352 341 331 329 318 311 301 300 294 296 280 271 271 263 250
281 278 279 279 286 295 302 277 265 259 253 244 244 231 205 193 180 139 180 335 174 219 222 180 222 197 220 212 217 270 281 268 253 289 93 264 38 352 347 338 334 330 330 323 321 313 305 299 291 287 284 275 263 254
278 273 274 274 285 298 297 292 291 271 261 251 220 184 173 188 151 169 197 260 287 226 215 192 257 229 221 232 233 210 245 263 352 247 228 217 346 341 336 331 328 326 324 324 322 317 308 302 297 288 273 274 271 257
277 265 268 269 287 295 288 283 275 267 266 259 186 226 197 172 203 189 198 207 227 304 351 214 237 186 232 21 215 215 245 104 233 231 238 345 340 332 331 329 329 327 326 320 315 318 315 310 299 295 282 269 240 209
301 287 272 280 288 281 279 313 316 299 223 210 210 230 203 220 225 235 234 271 325 330 0 343 296 191 250 238 207 256 248 237 256 266 304 323 323 323 324 325 325 324 323 321 323 323 324 310 281 258 238 215 198 175
266 272 276 283 241 249 272 292 293 296 254 236 218 163 2 53 301 87 22 59 1 341 327 206 247 355 244 213 213 240 307 254 307 287 312 315 316 318 318 319 319 317 316 316 322 325 321 315 238 167 149 150 156 164
271 261 247 262 277 288 285 271 261 214 221 209 242 156 125 69 75 94 37 5 349 351 351 319 240 231 308 256 218 17 322 333 312 307 307 308 311 313 316 317 320 323 326 331 332 331 337 5 133 134 124 130 145 149
272 279 283 295 305 299 274 220 216 232 235 201 148 90 84 77 88 55 19 7 30 36 9 313 327 311 293 288 333 335 305 308 306 305 309 311 315 322 321 320 327 332 335 345 352 7 59 103 113 109 119 127 131 132
277 294 298 265 242 257 247 211 211 219 152 94 96 87 90 87 60 59 47 79 80 72 85 33 52 357 303 300 308 313 312 312 312 312 311 315 324 324 326 333 341 344 347 357 24 47 68 89 102 116 124 127 116 115
289 283 261 265 209 202 230 217 305 60 81 101 100 81 77 76 81 48 54 66 73 56 43 44 52 265 278 294 299 296 298 305 309 311 315 325 329 335 342 354 355 359 13 31 50 71 80 88 94 103 110 112 117 119
281 257 242 166 179 201 78 20 44 50 69 90 120 81 99 78 50 32 38 31 61 44 356 302 303 307 310 312 319 316 308 311 309 307 307 319 335 352 6 17 23 36 44 52 60 65 74 80 90 100 107 107 111 116
210 180 149 160 107 84 78 31 28 11 58 109 85 74 64 54 19 26 42 47 59 335 320 314 317 322 325 332 330 326 324 327 336 345 356 2 2 17 26 29 37 40 51 54 62 68 76 85 93 99 102 105 109 112
133 120 70 40 86 46 1 21 51 18 51 48 63 58 39 51 54 41 73 65 27 349 348 348 350 355 353 0 7 12 8 16 22 25 30 32 31 45 47 48 54 53 57 62 71 76 81 87 92 95 99 103 107 111
99 59 35 40 26 24 356 26 27 20 39 26 46 56 39 32 50 60 74 27 347 4 14 19 22 20 36 37 29 33 40 47 53 53 49 52 47 44 49 54 56 63 69 73 77 82 86 89 94 96 100 104 106 109
86 12 26 6 17 28 30 16 359 16 51 12 50 44 18 358 68 60 55 346 356 4 13 23 34 41 31 45 50 53 57 60 59 60 59 62 70 71 65 61 57 58 63 69 70 74 80 84 86 89 92 94 99 103
69 14 49 352 357 59 357 46 27 6 356 44 31 327 330 67 69 69 25 340 350 4 8 13 14 32 45 46 48 52 55 65 67 64 58 58 58 58 58 55 54 53 55 58 62 67 71 73 78 81 83 81 81 88
55 339 31 29 26 64 49 38 30 41 39 21 354 337 358 70 86 126 358 5 14 24 34 40 51 52 49 49 53 53 55 59 62 64 59 54 54 54 53 51 50 49 53 56 58 59 62 65 69 71 77 85 89 88
71 33 48 344 43 38 107 53 51 28 316 334 300 18 54 125 138 188 158 59 78 78 71 65 62 60 58 55 52 51 54 54 57 62 60 54 54 54 56 56 56 55 54 56 58 58 58 61 63 65 68 70 74 78
42 355 15 17 28 49 64 112 222 357 332 262 153 226 237 239 210 149 134 125 118 108 90 67 52 42 37 35 34 35 35 36 35 41 42 37 36 35 35 34 33 31 31 34 34 38 39 40 44 47 51 56 59 65
1 4 77 57 67 41 20 19 341 344 11 77 195 234 9 150 151 147 143 140 138 129 86 51 34 20 11 7 4 3 11 15 19 22 22 18 12 9 9 8 7 4 1 357 352 347 343 337 332 325 319 313 309 301
347 354 67 52 105 44 338 333 307 322 333 13 36 314 259 222 214 204 194 191 195 213 260 359 350 341 339 339 346 356 2 4 8 9 7 1 356 354 354 353 350 349 349 347 343 336 328 323 317 313 309 304 299 294
15 34 93 55 311 344 350 360 337 297 298 217 253 288 275 264 256 224 225 217 222 230 248 285 321 334 341 345 345 345 350 351 350 349 348 346 345 343 343 342 338 334 332 330 327 325 324 319 314 310 306 303 303 303
3 17 36 11 11 10 357 350 19 358 329 328 320 330 323 279 249 269 266 233 233 242 251 273 284 326 336 339 342 335 334 337 338 338 335 332 329 329 329 326 323 321 320 317 312 309 307 306 305 304 302 302 302 302